Forecast

Icon not available

Showery, becoming less settled.
Computed at 04:56 BST:



Current


  • Indoors 21.4 °C
  • Outside 16.7 °C
  • Feels 18.0 °C
  • Humidity 84%
  • Pressure 1014.8 hPa
  • Hour trend -0.2 hPa
  • Wind 0.0 mph
  • Gust 0.0 mph
  • Direction SSE
  • Hourly rain 0.0 mm
  • Daily rain 0.0 mm


Graphs




Links


Last 28 days view

24 hours ending Temperature Wind Rainfall
day max night min dir average max gust
24-06-2017 - 05:56 BST 16.1 °C S 0 mph 0 mph 0.0 mm
23-06-2017 - 21:56 BST 24.1 °C 13.5 °C S 0 mph 0 mph 0.0 mm
22-06-2017 - 21:56 BST 25.4 °C 19.7 °C WSW 0 mph 5 mph 0.0 mm
21-06-2017 - 21:56 BST 26.2 °C 15.1 °C W 2 mph 9 mph 0.0 mm
20-06-2017 - 21:56 BST 26.6 °C 14.5 °C WSW 2 mph 10 mph 0.0 mm
19-06-2017 - 21:56 BST 29.1 °C 15.2 °C E 1 mph 7 mph 0.0 mm
18-06-2017 - 21:56 BST 29.1 °C 18.1 °C E 2 mph 8 mph 0.0 mm
17-06-2017 - 21:56 BST 30.1 °C 15.3 °C ESE 1 mph 8 mph 0.0 mm
16-06-2017 - 21:56 BST 23.7 °C 11.7 °C SSW 1 mph 9 mph 0.0 mm
15-06-2017 - 21:56 BST 25.3 °C 14.2 °C SE 2 mph 15 mph 0.0 mm
14-06-2017 - 21:56 BST 23.6 °C 12.7 °C N 1 mph 9 mph 0.0 mm
13-06-2017 - 21:56 BST 22.3 °C 10.2 °C E 1 mph 103 mph 0.0 mm
12-06-2017 - 21:56 BST 19.7 °C 11.5 °C SE 2 mph 13 mph 0.0 mm
11-06-2017 - 21:56 BST 22.8 °C 14.0 °C SE 3 mph 18 mph 0.0 mm
10-06-2017 - 21:56 BST 22.4 °C 12.9 °C SE 3 mph 15 mph 6.6 mm
09-06-2017 - 21:56 BST 19.9 °C 11.9 °C SE 2 mph 14 mph 3.3 mm
08-06-2017 - 21:56 BST 18.4 °C 12.6 °C SE 4 mph 14 mph 0.0 mm
07-06-2017 - 21:56 BST 20.0 °C 10.2 °C SSE 4 mph 15 mph 0.0 mm
06-06-2017 - 21:56 BST 16.4 °C 9.0 °C SE 5 mph 19 mph 5.4 mm
05-06-2017 - 21:56 BST 18.3 °C 10.9 °C SE 4 mph 15 mph 0.0 mm
04-06-2017 - 21:56 BST 19.9 °C 10.3 °C SE 2 mph 11 mph 0.0 mm
03-06-2017 - 21:56 BST 22.2 °C 14.1 °C SSW 1 mph 10 mph 0.0 mm
02-06-2017 - 21:56 BST 25.1 °C 12.6 °C W 1 mph 10 mph 0.0 mm
01-06-2017 - 21:56 BST 23.6 °C 12.2 °C ENE 1 mph 7 mph 0.0 mm
31-05-2017 - 21:56 BST 22.5 °C 12.5 °C ENE 1 mph 7 mph 0.0 mm
30-05-2017 - 21:56 BST 20.8 °C 15.4 °C SSE 2 mph 10 mph 0.0 mm
29-05-2017 - 21:56 BST 23.4 °C 13.1 °C NW 2 mph 15 mph 10.5 mm
28-05-2017 - 21:56 BST 24.4 °C 11.8 °C ESE 1 mph 7 mph 0.0 mm
27-05-2017 - 21:56 BST 24.5 °C 14.2 °C SE 2 mph 14 mph 0.6 mm
26-05-2017 - 21:56 BST 24.2 °C 12.6 °C WNW 2 mph 9 mph 0.0 mm
25-05-2017 - 21:56 BST 23.0 °C 12.0 °C N 1 mph 9 mph 0.0 mm
24-05-2017 - 21:56 BST 25.7 °C 12.3 °C SE 1 mph 8 mph 0.0 mm
23-05-2017 - 21:56 BST 21.9 °C 11.9 °C SSE 1 mph 10 mph 0.0 mm
22-05-2017 - 21:56 BST 23.4 °C 10.0 °C E 1 mph 8 mph 0.0 mm
21-05-2017 - 21:56 BST 19.0 °C 8.4 °C E 2 mph 8 mph 0.0 mm
20-05-2017 - 21:56 BST 17.0 °C 7.3 °C SE 3 mph 14 mph 0.3 mm
19-05-2017 - 21:56 BST 15.0 °C 8.5 °C SSW 1 mph 9 mph 6.0 mm
18-05-2017 - 21:56 BST 19.1 °C 9.8 °C SW 1 mph 8 mph 6.6 mm
17-05-2017 - 21:56 BST 20.9 °C 14.9 °C WSW 1 mph 11 mph 25.8 mm
16-05-2017 - 21:56 BST 24.6 °C 15.2 °C SE 3 mph 15 mph 0.0 mm
15-05-2017 - 21:56 BST 18.5 °C 9.2 °C ESE 2 mph 11 mph 0.0 mm
14-05-2017 - 21:56 BST 20.1 °C 10.5 °C ESE 2 mph 11 mph 0.0 mm
13-05-2017 - 21:56 BST 18.6 °C 10.3 °C SE 2 mph 12 mph 0.0 mm
12-05-2017 - 21:56 BST 18.8 °C 11.2 °C ESE 2 mph 11 mph 0.6 mm
11-05-2017 - 21:56 BST 18.8 °C 6.9 °C W 3 mph 13 mph 0.0 mm
10-05-2017 - 21:58 BST 13.8 °C 7.2 °C NW 1 mph 74 mph 0.0 mm
09-05-2017 - 21:57 BST 11.8 °C 5.1 °C WSW 2 mph 8 mph 0.0 mm
08-05-2017 - 21:59 BST 12.7 °C 7.3 °C WSW 4 mph 15 mph 0.0 mm
07-05-2017 - 21:56 BST 15.8 °C 7.8 °C WSW 3 mph 12 mph 0.0 mm
06-05-2017 - 22:00 BST 15.5 °C 8.6 °C WNW 4 mph 18 mph 0.0 mm
05-05-2017 - 22:00 BST 13.8 °C 8.5 °C WNW 5 mph 17 mph 0.0 mm
04-05-2017 - 22:00 BST 13.3 °C 8.5 °C W 5 mph 15 mph 0.0 mm